Temperature
17 17 17 17 17 17 17 17 17 18 18 17 17 16 16 16 16 16 16 16 16 16 16 16 16 16 15 15 15 15 15 15 15 15 15 15 15 15
17 17 17 17 17 17 17 17 17 17 17 17 17 16 16 16 16 15 15 16 16 16 16 16 15 15 15 15 15 15 15 15 15 15 15 15 15 15
16 16 16 16 17 17 17 17 17 17 17 17 16 16 15 15 15 15 15 15 15 15 15 15 15 15 15 15 15 15 15 15 15 15 15 14 14 14
16 16 16 16 16 16 16 16 16 16 16 16 16 16 15 15 15 15 15 15 15 15 15 15 15 15 15 15 15 15 15 14 14 14 14 14 14 14
16 16 16 16 16 16 16 16 16 16 16 16 16 16 15 15 15 14 15 14 14 15 14 15 15 15 15 15 15 14 14 14 14 14 14 14 14 14
16 15 15 15 15 15 15 15 15 15 15 15 15 15 15 14 14 14 14 14 14 14 14 14 14 14 14 14 14 14 14 14 14 14 14 14 13 13
15 15 15 15 16 15 15 15 15 15 15 15 15 15 15 14 14 14 14 14 14 14 14 14 14 14 14 14 13 14 13 13 13 13 13 13 13 13
15 15 15 15 15 15 15 15 15 15 15 15 15 14 14 14 13 13 14 14 14 13 13 13 13 13 13 13 13 13 13 13 13 13 13 13 13 13
15 15 15 15 15 15 15 15 15 14 14 14 14 14 14 13 13 13 13 13 13 13 13 13 13 13 13 13 13 12 12 12 12 12 12 12 13 13
15 15 15 15 15 15 14 14 14 14 14 14 13 13 13 13 13 13 12 12 12 12 12 12 12 12 12 12 12 12 12 12 12 12 12 12 12 12
15 15 15 15 15 14 14 14 14 14 14 14 13 13 13 13 12 12 12 12 13 13 12 12 12 12 12 12 12 12 12 12 12 12 12 12 12 12
14 14 15 14 14 14 14 13 13 13 13 13 13 13 12 12 12 12 12 12 12 12 12 12 12 12 12 12 12 11 11 11 11 11 11 11 11 11
14 14 14 14 14 14 13 13 13 13 13 12 12 12 12 12 12 12 12 11 12 12 12 11 11 11 11 11 11 11 11 11 11 11 11 11 11 11
14 14 13 14 13 13 13 13 13 13 12 12 12 12 12 12 12 11 11 11 11 11 11 11 11 11 11 11 11 11 11 11 11 10 10 10 10 10
13 13 13 13 13 13 13 13 12 12 12 12 12 12 12 11 11 11 11 11 11 11 11 11 10 10 11 11 11 11 11 10 10 10 10 10 10 10
13 13 13 13 13 12 12 12 12 12 12 12 12 11 11 11 11 11 11 11 11 10 10 10 10 10 10 10 10 10 10 10 10 10 10 10 9 9
12 12 12 12 12 12 12 11 11 11 11 11 11 11 11 10 10 10 10 10 10 10 10 10 10 10 10 10 10 10 10 10 10 10 9 9 9 9
12 12 12 12 12 12 12 11 11 11 11 11 11 10 10 10 10 10 10 10 10 10 10 10 10 10 10 10 10 10 10 10 9 9 9 9 9 9
12 12 12 12 11 12 12 11 11 11 11 10 10 10 10 10 10 10 10 10 10 10 10 10 10 9 10 10 10 9 9 9 9 9 9 9 9 9
11 11 11 11 11 11 11 11 11 11 10 10 10 10 10 10 10 10 10 9 9 9 9 9 9 9 9 9 9 9 9 9 9 9 8 8 8 8
11 11 11 11 11 11 11 10 10 10 10 10 10 9 9 9 9 9 9 9 9 9 9 9 9 9 9 9 9 9 9 9 9 8 8 8 8 8
11 11 11 10 10 10 10 10 10 10 9 9 9 9 9 9 9 9 9 9 9 9 9 9 9 9 9 9 9 9 9 8 8 8 8 8 8 8
10 10 10 10 10 9 9 9 9 9 9 9 9 9 9 9 9 9 9 9 9 9 9 9 9 9 9 9 9 9 8 8 8 8 8 8 8 8
Wind_Speed
5 5 5 4 4 5 4 4 5 5 4 3 3 2 3 2 2 3 3 4 6 5 5 5 5 5 5 5 6 6 6 6 5 6 6 7 8 9
5 5 6 5 4 4 5 5 5 5 5 2 2 2 1 2 3 3 3 6 6 6 5 5 5 6 6 6 6 7 6 6 5 5 6 6 6 7
6 5 6 5 5 4 4 5 5 5 5 3 2 1 3 3 2 3 4 4 4 7 6 5 6 6 6 6 6 6 6 6 6 6 6 6 6 5
5 5 6 5 5 5 4 5 4 4 5 5 4 3 4 4 3 4 4 4 4 6 7 6 6 6 6 6 6 6 6 6 6 6 6 6 6 6
5 5 5 5 5 4 5 5 5 5 5 5 5 3 4 3 3 4 4 3 5 4 7 7 6 7 7 7 6 6 6 6 6 7 6 6 6 6
5 5 5 5 5 5 5 4 4 4 4 5 4 4 3 3 3 3 3 3 3 3 1 2 5 8 8 8 7 6 6 5 5 5 6 6 6 6
4 5 4 3 2 3 4 4 4 4 4 5 4 4 3 2 3 4 3 3 2 2 2 2 3 3 5 8 8 6 6 5 5 4 5 5 5 6
5 5 5 4 3 3 2 3 3 5 5 5 5 4 3 3 2 3 3 3 3 1 2 3 2 2 3 2 5 6 5 4 5 4 4 5 5 5
5 5 4 3 3 4 4 6 4 4 4 6 5 4 3 2 3 4 3 4 4 2 3 4 2 2 2 2 6 5 4 4 4 4 4 4 4 5
5 5 4 3 3 3 4 4 5 4 5 5 4 4 3 2 3 5 4 4 4 3 3 4 2 2 2 2 7 6 5 4 4 4 3 4 4 4
5 5 5 4 2 3 5 5 5 4 4 4 2 2 1 2 3 4 4 4 4 3 2 3 3 3 2 2 4 8 7 6 5 4 4 4 3 4
5 5 5 4 4 4 6 5 6 5 4 4 5 6 5 6 7 5 5 5 4 3 2 3 3 2 3 2 1 2 3 5 6 6 5 5 3 3
5 5 4 5 5 6 6 6 5 5 5 5 4 4 4 4 4 4 3 5 5 5 2 3 4 4 4 3 3 2 1 1 2 3 5 5 4 4
5 4 3 5 6 6 5 4 4 6 5 4 4 4 4 3 2 2 2 3 4 5 4 4 4 4 4 4 3 3 2 2 2 1 1 4 5 6
4 1 3 6 7 6 6 6 6 5 4 4 4 4 3 3 2 2 3 3 3 3 3 4 5 4 5 5 4 3 3 2 2 2 2 2 2 3
5 3 7 8 7 4 5 6 6 4 5 5 4 3 3 3 4 3 3 3 3 2 3 4 4 5 5 4 3 3 3 3 3 2 2 2 2 2
4 4 4 4 4 4 4 4 5 5 5 5 4 4 3 4 4 4 3 4 4 3 2 3 3 4 4 4 3 3 3 3 2 1 2 3 2 2
5 5 5 5 5 5 5 5 5 5 5 5 4 4 4 4 4 3 3 4 4 4 3 2 2 2 3 3 2 4 3 2 1 1 3 3 3 2
5 5 5 5 5 5 4 4 4 4 4 5 5 5 5 4 4 4 4 4 4 3 3 3 3 3 4 4 2 3 3 2 2 2 3 3 3 2
5 4 4 5 5 5 4 4 4 4 4 4 4 4 4 5 5 5 5 5 4 4 4 4 4 4 5 4 3 2 4 4 3 3 3 3 2 1
5 4 4 4 4 4 4 4 4 4 4 4 4 4 4 5 5 5 4 4 5 5 5 5 3 4 5 4 4 3 2 3 3 3 3 4 3 3
3 3 3 3 3 3 3 4 4 4 4 4 4 4 4 5 5 5 5 5 5 5 5 4 3 4 4 5 4 3 2 2 2 3 3 4 4 3
3 3 3 3 3 3 3 4 5 4 3 4 4 4 4 5 5 5 5 5 5 5 5 4 3 4 5 5 4 3 3 4 4 3 3 5 5 5
Wind_Direction
248 243 250 250 248 254 255 256 263 269 256 218 227 220 229 229 146 219 227 174 197 211 221 230 231 221 215 215 217 220 219 219 218 221 227 225 225 228
258 265 264 259 256 248 247 248 251 266 274 278 240 216 215 240 170 220 217 168 190 200 210 222 225 217 214 214 217 215 214 218 215 217 219 219 220 222
254 250 253 266 265 261 252 249 245 249 257 267 279 232 222 252 243 240 237 235 210 187 197 213 220 217 215 217 214 210 215 221 213 212 217 218 220 218
249 250 254 253 254 264 264 256 254 249 251 255 252 243 230 228 239 248 248 250 258 175 186 205 211 212 212 212 211 211 210 210 211 215 220 221 222 223
244 246 253 256 256 257 260 256 253 247 242 243 242 236 239 230 233 241 248 255 261 202 183 194 201 203 205 207 207 206 205 207 214 219 222 224 222 226
242 246 250 249 252 256 250 250 254 256 243 241 238 235 229 227 238 247 248 239 260 266 259 219 190 196 201 200 200 200 202 206 217 222 223 222 225 231
237 241 236 233 259 269 270 254 245 245 243 242 239 245 236 229 240 248 254 259 249 263 273 256 215 218 205 196 193 194 196 202 209 216 219 223 227 231
236 239 229 215 206 205 256 286 280 250 251 253 242 241 244 245 254 256 262 268 273 258 273 277 269 259 250 222 146 159 182 200 210 218 226 229 229 228
234 239 245 221 216 230 209 211 228 230 243 258 257 250 246 239 249 253 264 283 292 295 281 278 269 260 251 135 137 156 174 191 202 213 223 228 227 226
230 229 234 233 239 238 235 233 236 228 222 233 252 249 244 245 250 257 261 256 248 240 246 267 267 273 262 166 152 165 174 185 194 205 213 220 226 233
228 223 226 226 198 227 232 234 239 239 201 178 186 201 195 203 243 255 258 259 264 259 240 264 265 272 269 232 171 174 181 185 189 197 209 220 234 244
220 217 207 220 202 216 229 235 240 242 235 201 191 199 206 201 207 238 259 263 270 269 244 259 260 267 269 259 261 210 191 183 189 196 198 201 215 249
225 225 206 175 198 217 236 239 244 251 240 225 215 209 207 213 217 222 255 272 273 270 253 248 265 261 264 269 281 275 255 241 213 197 190 186 203 245
239 235 204 176 198 213 224 232 236 237 236 228 225 220 215 220 221 238 249 272 289 283 273 262 262 260 263 268 270 264 263 250 244 253 239 182 213 227
249 225 184 194 208 212 209 212 222 231 231 231 229 230 231 226 227 232 234 233 248 256 246 246 255 254 256 261 265 258 263 260 243 245 247 254 265 254
241 205 188 201 217 217 202 207 219 228 237 238 238 236 234 228 231 239 243 238 248 243 215 225 250 259 254 256 250 253 260 257 253 265 276 273 269 261
230 229 224 213 220 219 222 224 221 215 222 233 230 225 225 227 234 238 246 240 243 246 229 220 229 245 258 266 251 246 248 258 259 265 274 278 281 278
219 231 230 229 232 229 224 224 222 221 224 229 227 226 226 228 231 239 239 242 246 248 252 254 241 242 251 239 242 252 243 249 261 248 264 270 282 290
219 236 239 240 240 240 236 236 234 226 224 230 230 227 226 227 229 234 239 238 246 257 264 264 255 249 255 263 233 222 253 265 258 261 263 270 278 290
245 249 248 243 242 244 241 241 240 231 220 225 228 228 229 232 233 236 233 235 242 251 255 251 246 247 254 268 274 248 220 246 252 253 258 260 267 270
245 247 254 258 253 245 243 239 239 238 230 226 227 227 233 239 239 241 241 228 241 248 250 251 245 242 256 259 256 242 220 213 253 262 257 253 250 249
258 261 265 268 266 263 250 243 240 235 228 224 226 230 236 239 239 240 241 239 241 248 254 253 231 228 239 246 250 246 239 225 218 228 241 258 266 261
260 264 263 258 254 254 252 246 242 240 233 235 233 233 234 234 236 239 241 243 245 248 250 248 237 233 233 235 235 236 236 234 230 223 225 194 196 205
Height
1535 1534 1534 1534 1534 1534 1534 1534 1535 1534 1533 1533 1533 1533 1532 1532 1531 1531 1531 1530 1530 1530 1530 1530 1530 1529 1529 1529 1530 1530 1530 1530 1531 1531 1531 1532 1533 1533
1532 1531 1531 1532 1532 1532 1532 1531 1531 1532 1531 1531 1531 1530 1530 1530 1529 1529 1529 1528 1527 1527 1527 1527 1527 1527 1527 1526 1527 1527 1527 1527 1527 1528 1528 1528 1529 1530
1529 1529 1529 1529 1529 1529 1529 1529 1529 1529 1529 1529 1528 1528 1526 1526 1526 1526 1526 1525 1525 1524 1524 1524 1524 1524 1524 1524 1524 1524 1524 1524 1524 1525 1525 1525 1526 1526
1526 1526 1526 1526 1525 1526 1526 1526 1526 1525 1526 1525 1525 1525 1523 1523 1523 1522 1523 1523 1523 1522 1521 1521 1521 1521 1521 1521 1520 1520 1520 1521 1521 1522 1522 1522 1522 1523
1522 1522 1522 1522 1522 1523 1522 1522 1523 1522 1522 1522 1521 1521 1521 1520 1520 1520 1520 1519 1520 1520 1518 1517 1517 1517 1517 1517 1517 1517 1517 1517 1518 1518 1518 1518 1519 1519
1519 1519 1519 1519 1519 1519 1519 1518 1519 1519 1519 1519 1518 1518 1518 1517 1517 1517 1517 1517 1517 1517 1516 1515 1514 1514 1514 1514 1514 1514 1514 1514 1514 1514 1514 1515 1515 1516
1515 1515 1515 1515 1515 1515 1516 1515 1515 1515 1516 1515 1515 1515 1515 1515 1515 1515 1515 1514 1514 1513 1513 1512 1512 1511 1511 1511 1510 1510 1510 1510 1510 1511 1511 1511 1512 1512
1512 1511 1511 1511 1511 1511 1511 1512 1512 1512 1512 1512 1512 1512 1512 1512 1512 1512 1512 1512 1512 1511 1510 1510 1510 1509 1509 1509 1507 1507 1507 1507 1507 1507 1508 1508 1508 1509
1508 1508 1509 1508 1508 1508 1508 1508 1508 1508 1508 1508 1509 1508 1509 1509 1509 1509 1509 1509 1509 1508 1508 1507 1507 1506 1506 1505 1504 1504 1504 1504 1504 1504 1504 1505 1505 1505
1504 1504 1504 1504 1505 1504 1504 1504 1504 1504 1504 1504 1504 1505 1506 1505 1506 1507 1506 1506 1505 1505 1505 1505 1504 1504 1503 1502 1501 1501 1501 1500 1501 1501 1501 1501 1501 1501
1500 1500 1500 1501 1500 1500 1501 1501 1500 1500 1500 1500 1500 1501 1501 1502 1503 1504 1504 1504 1503 1503 1503 1502 1502 1501 1501 1500 1499 1498 1498 1497 1497 1497 1498 1498 1498 1498
1497 1497 1497 1497 1497 1497 1498 1498 1497 1497 1497 1497 1497 1498 1498 1499 1499 1500 1501 1501 1501 1501 1500 1500 1499 1499 1498 1498 1497 1497 1496 1495 1495 1495 1495 1495 1495 1495
1494 1494 1493 1493 1493 1494 1494 1494 1494 1494 1494 1495 1495 1495 1496 1496 1497 1497 1497 1498 1498 1497 1497 1496 1497 1497 1496 1496 1495 1495 1494 1494 1493 1493 1493 1492 1492 1493
1490 1491 1490 1490 1490 1490 1490 1490 1491 1491 1492 1492 1492 1493 1493 1493 1494 1494 1494 1493 1493 1494 1493 1493 1493 1493 1493 1493 1492 1492 1492 1492 1491 1491 1491 1490 1490 1490
1486 1486 1486 1486 1486 1486 1486 1487 1487 1488 1489 1489 1489 1489 1490 1490 1490 1491 1490 1490 1490 1490 1490 1490 1490 1490 1490 1490 1490 1490 1489 1489 1489 1489 1489 1488 1488 1488
1482 1482 1482 1482 1482 1482 1483 1483 1483 1484 1485 1485 1486 1486 1486 1487 1487 1487 1487 1487 1488 1487 1487 1487 1487 1487 1487 1487 1487 1487 1487 1487 1487 1487 1486 1486 1486 1485
1478 1479 1479 1479 1479 1479 1479 1480 1480 1480 1481 1482 1482 1483 1483 1483 1483 1484 1484 1484 1485 1485 1484 1484 1484 1484 1484 1484 1484 1484 1484 1484 1484 1484 1483 1483 1483 1483
1474 1474 1475 1475 1475 1475 1476 1476 1476 1477 1477 1478 1479 1479 1480 1480 1480 1481 1481 1482 1482 1482 1482 1482 1482 1481 1481 1481 1481 1481 1482 1482 1482 1481 1481 1481 1481 1481
1470 1471 1471 1471 1472 1472 1472 1473 1473 1473 1474 1475 1476 1476 1476 1477 1477 1478 1478 1479 1479 1479 1479 1479 1479 1479 1479 1478 1478 1478 1478 1479 1479 1478 1478 1479 1478 1478
1467 1467 1467 1467 1468 1468 1469 1469 1470 1470 1470 1471 1472 1473 1473 1474 1474 1475 1475 1476 1476 1476 1476 1477 1477 1477 1477 1477 1476 1476 1476 1476 1476 1476 1476 1476 1476 1476
1464 1464 1464 1464 1464 1464 1465 1465 1466 1467 1467 1468 1468 1469 1470 1470 1471 1472 1472 1472 1473 1473 1473 1474 1474 1474 1474 1475 1474 1474 1473 1473 1473 1473 1474 1474 1474 1474
1461 1461 1460 1460 1461 1461 1461 1462 1462 1463 1464 1464 1465 1465 1466 1467 1467 1468 1468 1469 1469 1470 1470 1470 1470 1471 1471 1472 1471 1471 1471 1471 1470 1470 1471 1471 1471 1471
1458 1458 1457 1457 1457 1457 1458 1458 1459 1459 1460 1460 1461 1461 1462 1463 1463 1464 1464 1465 1466 1466 1467 1467 1467 1467 1468 1469 1469 1468 1468 1468 1468 1468 1469 1469 1469 1469